[[{"header":{"parameterUnit":"m.s-1","parameterCategory":1,"la1":30.2991,"la2":30.254,"lo1":-89.0895,"lo2":-89.0444,"dy":0.0017,"dx":0.0017,"nx":28,"ny":28,"refTime":"2025-04-09T21:00:00:Z","depth":0,"parameterNumber":2,"parameterNumberName":"U-component_of_WINDS"},"data":[0,0,0,0,0,0,0,0,0,0,0,0,0,0,0,0,0,0,0,0,0,0,0,0,0,0,0,0,0,0,0,0,0,0,0,0,0,0,0,0,0,0,0,0,0,0,0,0,0,0,0,0,0,0,0,0,0,0,1.1919,1.192,0,1.2029,1.203,1.2032,1.2033,1.2031,1.203,1.2029,1.2147,1.2151,1.2156,0,0,0,0,0,0,0,0,0,0,0,0,0,1.1712,1.1715,1.1919,1.192,1.1921,1.2029,1.2031,1.2032,1.2033,1.2031,1.203,1.2028,1.2145,1.2151,1.2156,0,0,0,0,0,0,0,0,0,0,0,0,0,1.181,1.1717,1.1918,1.1935,1.1937,1.2029,1.2031,1.2032,1.2034,1.2031,1.2029,1.2027,1.2144,1.215,1.2157,1.2241,0,0,1.2177,1.218,0,0,0,0,0,0,0,0,1.1804,1.1817,1.1931,1.1934,1.1937,1.2015,1.2001,1.2103,1.2034,1.1997,1.2029,1.2026,1.2105,1.2115,1.214,1.2246,1.2251,1.2178,1.2182,1.2185,1.2187,0,0,0,0,0,0,0,1.1797,1.1813,1.1963,1.1933,1.1936,1.1938,1.1949,1.202,1.2062,1.2,1.2001,1.2013,1.2106,1.2134,1.2143,1.2253,1.2178,1.2184,1.2188,1.219,1.2431,1.2433,0,0,0,0,0,0,1.1787,1.1807,1.1959,1.1966,1.1864,1.1943,1.1956,1.1992,1.2061,1.2069,1.2015,1.2013,1.2123,1.2135,1.2147,1.2248,1.2185,1.2191,1.2195,1.2429,1.2431,1.2434,0,0,0,0,0,0,1.1782,1.18,1.1955,1.1887,1.1906,1.1949,1.1989,1.1995,1.2023,1.2072,1.208,1.2035,1.2122,1.2138,1.2217,1.2252,1.2194,1.22,1.2426,1.2429,1.2433,1.2452,0,0,0,0,0,0,1.1776,1.1799,1.183,1.1887,1.191,1.2021,1.1992,1.1999,1.2034,1.2032,1.2093,1.2101,1.2122,1.2207,1.2223,1.2261,1.2205,1.2423,1.2427,1.2432,1.2448,1.2456,1.2462,0,0,0,0,0,1.1769,1.1833,1.1832,1.185,1.195,1.2023,1.2036,1.2057,1.2037,1.2069,1.21,1.21,1.2246,1.2215,1.2233,1.2273,1.2421,1.2426,1.2431,1.2445,1.2454,1.2462,0,0,0,0,0,0,1.1782,1.1841,1.1841,1.1925,1.1969,1.2023,1.2065,1.2066,1.2118,1.2115,1.214,1.2154,1.2231,1.2261,1.2225,1.2357,1.2331,1.234,1.2335,1.2344,1.2351,1.2342,1.2211,0,0,0,0,0,1.1794,1.1847,1.1897,1.1966,1.1988,1.2023,1.2055,1.2067,1.2114,1.2133,1.2171,1.2218,1.2274,1.2311,1.2366,1.2452,1.2465,1.2489,1.2496,1.2501,1.2509,1.2555,1.2566,1.2452,1.2452,1.2451,0,0,1.1821,1.186,1.1892,1.197,1.2005,1.206,1.2038,1.2098,1.2139,1.2143,1.2219,1.2247,1.2302,1.2384,1.2422,1.2411,1.2543,1.2508,1.2512,1.2517,1.2562,1.2572,1.2582,1.2455,1.2455,1.2454,0,0,1.1897,1.1932,1.1993,1.2028,1.2081,1.2103,1.2118,1.2172,1.219,1.2266,1.2269,1.2319,1.2416,1.2454,1.2486,1.2573,1.2574,1.2591,1.2626,1.2671,1.268,1.2688,1.2718,1.2728,1.2598,1.2598,1.2598,0,1.1924,1.2006,1.2024,1.2083,1.2117,1.212,1.2182,1.2216,1.2285,1.2308,1.2294,1.2413,1.245,1.254,1.2561,1.2588,1.2605,1.2584,1.2677,1.2685,1.2693,1.2722,1.2733,1.26,1.26,1.2599,1.2599,0,1.2035,1.2092,1.2135,1.2198,1.2237,1.2297,1.2325,1.2362,1.237,1.2393,1.247,1.2514,1.2576,1.2599,1.2609,1.269,1.2681,1.2671,1.2646,1.2705,1.2732,1.2744,1.2602,1.2601,1.2601,1.2601,0,0,1.2124,1.2195,1.221,1.2238,1.2296,1.234,1.24,1.2459,1.249,1.2537,1.2587,1.2668,1.2659,1.2695,1.2709,1.2748,1.2812,1.2734,1.2735,1.2745,1.2903,1.2908,1.2921,1.2813,1.2815,1.2817,1.2898,0,1.2206,1.231,1.2327,1.2419,1.2471,1.2474,1.2526,1.2567,1.2591,1.2638,1.2665,1.2721,1.2705,1.2727,1.2766,1.2796,1.2844,1.279,1.286,1.2862,1.2845,1.2935,1.2943,1.3017,1.2909,1.291,1.2912,0,1.2315,1.2361,1.2458,1.2506,1.2528,1.2575,1.2629,1.2675,1.2721,1.2735,1.2774,1.2782,1.2845,1.2816,1.2901,1.2865,1.2894,1.2913,1.2916,1.2923,1.289,1.2944,1.3041,1.3052,1.2929,1.2928,1.2926,0,1.2368,1.2455,1.2523,1.2547,1.2606,1.2638,1.2664,1.2708,1.2742,1.279,1.2812,1.2867,1.2897,1.294,1.2963,1.294,1.3047,1.302,1.306,1.3059,1.3082,1.308,1.3185,1.3103,1.3102,1.3102,1.3102,0,1.2456,1.2515,1.2547,1.259,1.2655,1.2674,1.2739,1.2764,1.2803,1.285,1.2857,1.2902,1.293,1.2978,1.2997,1.3064,1.3078,1.3091,1.3095,1.309,1.3088,1.311,1.3105,1.3105,1.3105,1.3104,1.3104,0,1.2527,1.2551,1.2625,1.2673,1.2687,1.2733,1.2774,1.2815,1.2837,1.2897,1.2912,1.2948,1.3005,1.3032,1.3104,1.3116,1.3192,1.3193,1.3175,1.3177,1.3214,1.321,1.3335,1.3352,1.326,1.326,1.3261,0,1.2581,1.2626,1.2677,1.2708,1.2734,1.2785,1.2818,1.2839,1.2874,1.2928,1.2963,1.3019,1.3066,1.3157,1.319,1.3244,1.3246,1.3286,1.3255,1.3247,1.3245,1.3242,1.3246,1.3292,1.3293,1.3294,1.3294,0,1.2675,1.2684,1.2731,1.2781,1.282,1.2862,1.2903,1.2928,1.2955,1.2994,1.3051,1.3087,1.3158,1.3214,1.327,1.3298,1.3301,1.3304,1.3316,1.331,1.3297,1.3303,1.319,1.3301,1.33,1.33,1.3299,1.3299,1.2738,1.2777,1.2818,1.287,1.2902,1.2939,1.2979,1.3005,1.3053,1.3111,1.3121,1.3181,1.3225,1.33,1.3329,1.3377,1.3368,1.3386,1.339,1.3394,1.3395,1.329,1.3388,1.3388,1.3388,1.3387,1.3387,0,1.283,1.2857,1.2904,1.2959,1.2999,1.2996,1.3041,1.3075,1.3127,1.3167,1.3212,1.3276,1.333,1.3366,1.3421,1.3452,1.3454,1.3466,1.3463,1.3469,1.3401,1.3384,1.3462,1.3462,1.3462,1.3462,1.3462,1.3462,1.2883,1.2948,1.2962,1.3042,1.3068,1.3126,1.3151,1.3185,1.3217,1.3288,1.3332,1.3354,1.3392,1.3449,1.3498,1.3507,1.3527,1.3538,1.3547,1.3482,1.3474,1.3467,1.3451,1.3542,1.3542,1.3611,1.3612,1.3612]},{"header":{"parameterUnit":"m.s-1","parameterCategory":1,"la1":30.2991,"la2":30.254,"lo1":-89.0895,"lo2":-89.0444,"dy":0.0017,"dx":0.0017,"nx":28,"ny":28,"refTime":"2025-04-09T21:00:00:Z","depth":0,"parameterNumber":3,"parameterNumberName":"V-component_of_WINDS"},"data":[0,0,0,0,0,0,0,0,0,0,0,0,0,0,0,0,0,0,0,0,0,0,0,0,0,0,0,0,0,0,0,0,0,0,0,0,0,0,0,0,0,0,0,0,0,0,0,0,0,0,0,0,0,0,0,0,0,0,3.217,3.217,0,3.2153,3.2153,3.2153,3.2119,3.2118,3.2118,3.2117,3.2097,3.2097,3.2097,0,0,0,0,0,0,0,0,0,0,0,0,0,3.2169,3.2169,3.217,3.217,3.217,3.2153,3.2153,3.2153,3.2119,3.2118,3.2118,3.2117,3.2097,3.2097,3.2097,0,0,0,0,0,0,0,0,0,0,0,0,0,3.2162,3.2169,3.217,3.2151,3.2149,3.2153,3.2153,3.2152,3.2119,3.2118,3.2117,3.2117,3.2097,3.2097,3.2097,3.2117,0,0,3.2097,3.2097,0,0,0,0,0,0,0,0,3.2163,3.2162,3.2154,3.2152,3.215,3.2137,3.2145,3.214,3.212,3.2131,3.2117,3.2116,3.2111,3.211,3.2109,3.2116,3.2115,3.2097,3.2097,3.2097,3.2097,0,0,0,0,0,0,0,3.2163,3.2163,3.2163,3.2154,3.2152,3.2142,3.214,3.2144,3.2126,3.213,3.2127,3.2126,3.211,3.2109,3.2108,3.2115,3.2097,3.2097,3.2097,3.2097,3.2133,3.2134,0,0,0,0,0,0,3.2167,3.2164,3.2164,3.2163,3.2154,3.2143,3.214,3.2142,3.2126,3.2123,3.2127,3.2124,3.2109,3.2108,3.2107,3.2127,3.2097,3.2097,3.2097,3.2133,3.2134,3.2135,0,0,0,0,0,0,3.2167,3.2167,3.2164,3.2162,3.2161,3.2144,3.2146,3.2143,3.2141,3.2124,3.212,3.2129,3.2108,3.2107,3.2114,3.2125,3.2097,3.2097,3.2131,3.2133,3.2134,3.2168,0,0,0,0,0,0,3.2167,3.2168,3.2177,3.2163,3.2162,3.2174,3.2147,3.2143,3.2142,3.2139,3.2125,3.2122,3.2107,3.2114,3.2114,3.2125,3.2098,3.213,3.2132,3.2134,3.2166,3.217,3.2174,0,0,0,0,0,3.2167,3.2187,3.2177,3.2177,3.2172,3.2174,3.2173,3.2157,3.2143,3.2151,3.2139,3.2122,3.2125,3.2115,3.2115,3.2126,3.213,3.2132,3.2134,3.2164,3.2169,3.2174,0,0,0,0,0,0,3.2202,3.2185,3.2174,3.219,3.2184,3.2169,3.2178,3.2164,3.2161,3.2158,3.2136,3.2133,3.2142,3.2135,3.2125,3.2142,3.2124,3.2126,3.2147,3.2152,3.2156,3.2157,3.2098,0,0,0,0,0,3.2212,3.2216,3.22,3.2216,3.2213,3.2196,3.2196,3.2184,3.2176,3.2173,3.2162,3.2154,3.2153,3.2152,3.215,3.2164,3.2159,3.2172,3.2176,3.218,3.2181,3.2185,3.2189,3.2141,3.2141,3.2141,0,0,3.2231,3.2223,3.2227,3.2222,3.2216,3.2219,3.2194,3.2199,3.22,3.2174,3.2179,3.2171,3.216,3.217,3.2174,3.2164,3.2193,3.2182,3.2185,3.2185,3.2187,3.2192,3.2196,3.2143,3.2142,3.2142,0,0,3.2268,3.2263,3.2274,3.2268,3.2259,3.2247,3.2249,3.2236,3.2229,3.2235,3.2214,3.2214,3.2213,3.2205,3.2201,3.2232,3.2215,3.2232,3.2254,3.2257,3.2261,3.2264,3.2272,3.2276,3.2234,3.2234,3.2234,0,3.2294,3.2299,3.2281,3.2287,3.2284,3.226,3.2269,3.2264,3.2254,3.2252,3.2242,3.2237,3.2229,3.2235,3.2242,3.2241,3.2241,3.2233,3.2262,3.2265,3.2268,3.2275,3.2279,3.2236,3.2235,3.2235,3.2235,0,3.2328,3.2332,3.2341,3.2332,3.2331,3.2338,3.232,3.232,3.2307,3.2296,3.23,3.2288,3.2282,3.2283,3.2271,3.2286,3.228,3.2266,3.2247,3.2274,3.2281,3.2284,3.2238,3.2238,3.2237,3.2237,0,0,3.2387,3.2367,3.2371,3.2365,3.2352,3.2353,3.2358,3.2353,3.2352,3.2345,3.2347,3.2345,3.2331,3.2327,3.2313,3.2317,3.2338,3.2302,3.2301,3.2307,3.2351,3.236,3.2364,3.2327,3.2328,3.2328,3.2351,0,3.242,3.2428,3.2411,3.2423,3.2424,3.24,3.2404,3.2395,3.2384,3.2381,3.2368,3.2366,3.235,3.2346,3.2349,3.2335,3.2346,3.2333,3.2326,3.2326,3.2328,3.2368,3.2379,3.2401,3.2354,3.2354,3.2354,0,3.2459,3.2454,3.2465,3.2449,3.2449,3.2453,3.2444,3.2443,3.2432,3.2423,3.2417,3.24,3.2401,3.2383,3.2383,3.2374,3.237,3.2362,3.2363,3.236,3.2341,3.2364,3.2408,3.241,3.2359,3.2359,3.2358,0,3.2497,3.2493,3.2499,3.2495,3.2477,3.248,3.2472,3.2459,3.2456,3.2448,3.2445,3.2438,3.2433,3.2426,3.2407,3.2396,3.2407,3.2389,3.2398,3.2398,3.2401,3.2401,3.2442,3.2401,3.2401,3.2401,3.2401,0,3.2534,3.2541,3.2516,3.2519,3.2525,3.2505,3.2512,3.2501,3.249,3.2489,3.2468,3.2467,3.2443,3.2439,3.2424,3.2424,3.2422,3.2413,3.2409,3.2414,3.2415,3.241,3.2408,3.2402,3.2402,3.2402,3.2401,0,3.2578,3.2561,3.2565,3.2547,3.2543,3.2548,3.2531,3.2532,3.2519,3.2518,3.2517,3.2496,3.2489,3.247,3.2459,3.2448,3.2452,3.2445,3.2456,3.2453,3.2462,3.2461,3.2501,3.2504,3.2463,3.2463,3.2464,0,3.2601,3.2606,3.2588,3.2586,3.258,3.2577,3.2573,3.2553,3.2549,3.2535,3.2537,3.2529,3.2521,3.2512,3.2494,3.2485,3.2476,3.2491,3.2474,3.2479,3.2473,3.2473,3.2472,3.2494,3.2494,3.2495,3.2495,0,3.2644,3.2635,3.2631,3.2623,3.2619,3.2612,3.2603,3.2603,3.2579,3.2576,3.2569,3.2563,3.2551,3.2543,3.253,3.252,3.2502,3.25,3.2501,3.2506,3.2512,3.2506,3.2463,3.2499,3.2499,3.2499,3.2498,3.2498,3.2677,3.2679,3.2666,3.2661,3.2652,3.2644,3.2643,3.263,3.2625,3.2614,3.2601,3.2596,3.258,3.2562,3.2552,3.2546,3.2537,3.254,3.254,3.254,3.2542,3.2514,3.2544,3.2544,3.2544,3.2543,3.2543,0,3.2716,3.2706,3.2702,3.269,3.2686,3.2671,3.266,3.2657,3.2652,3.2641,3.2633,3.2624,3.2615,3.2596,3.2585,3.2583,3.2575,3.2581,3.258,3.2577,3.2552,3.2551,3.2587,3.2587,3.2587,3.2587,3.2587,3.2587,3.2736,3.2738,3.2727,3.2724,3.2713,3.2708,3.2703,3.2694,3.2684,3.2675,3.2668,3.2656,3.264,3.2627,3.2617,3.2612,3.2607,3.2615,3.2607,3.2583,3.2579,3.2575,3.2574,3.2615,3.2615,3.2633,3.2633,3.2633]}]]